KC9MWQ-13 Weather Reports


time (UTC)temp
C
wind
direction
speed
KPH
gust
KPH
rain 1hr
cm
rain 24hr
cm
rain mn
cm
humidity
%
barometer
mb
20260509044723 12 265 1.6 3.2 0.00 0.00 0.00 99 1009.1
20260509044221 12 242 4.8 4.8 0.00 0.00 0.00 99 1009.2
20260509043717 12 257 3.2 3.2 0.00 0.00 0.00 99 1009.1
20260509043213 12 261 1.6 1.6 0.00 0.00 0.00 99 1009.2
20260509042709 12 276 0.0 0.0 0.00 0.00 0.00 99 1008.9
20260509042205 12 257 1.6 3.2 0.00 0.00 0.00 99 1008.9
20260509041702 12 268 1.6 3.2 0.00 0.00 0.00 99 1009.2
20260509041200 12 256 3.2 3.2 0.00 0.00 0.00 99 1009.0
20260509040658 12 276 0.0 1.6 0.00 0.00 0.00 99 1009.2
20260509040154 12 248 0.0 1.6 0.00 0.00 0.00 99 1009.2
20260509035651 12 266 0.0 0.0 0.00 0.97 0.97 99 1009.0
20260509035148 12 250 3.2 3.2 0.00 0.97 0.97 99 1009.0
20260509034645 12 279 0.0 0.0 0.00 0.97 0.97 99 1009.3
20260509034142 12 255 3.2 3.2 0.00 0.97 0.97 99 1009.3
20260509033639 12 278 0.0 0.0 0.00 0.97 0.97 99 1009.5
20260509033136 12 263 0.0 0.0 0.00 0.97 0.97 99 1009.4
20260509032634 12 279 0.0 0.0 0.00 0.97 0.97 99 1009.5
20260509032130 12 273 0.0 0.0 0.00 0.97 0.97 99 1009.3
20260509031628 12 277 0.0 0.0 0.00 0.97 0.97 99 1009.5
20260509031125 12 269 1.6 1.6 0.00 0.97 0.97 99 1009.4
20260509030624 12 269 3.2 3.2 0.00 0.97 0.97 99 1009.5
20260509030120 12 280 0.0 0.0 0.00 0.97 0.97 99 1009.5
20260509025616 12 269 1.6 1.6 0.00 0.97 0.97 99 1009.5
20260509025112 11 268 1.6 1.6 0.00 0.97 0.97 99 1009.3
20260509024608 12 268 0.0 0.0 0.00 0.97 0.97 99 1009.4
20260509024104 11 266 3.2 3.2 0.00 0.97 0.97 99 1009.5
20260509023602 11 246 1.6 3.2 0.00 0.97 0.97 99 1009.7
20260509023059 12 276 1.6 1.6 0.00 0.97 0.97 99 1009.6
20260509022555 11 266 1.6 1.6 0.00 0.97 0.97 99 1009.3
20260509022053 12 276 0.0 0.0 0.00 0.97 0.97 99 1009.4
20260509021550 12 278 0.0 0.0 0.00 0.97 0.97 99 1009.4
20260509021047 12 268 3.2 3.2 0.00 0.97 0.97 99 1009.4
20260509020545 12 271 1.6 1.6 0.00 0.97 0.97 99 1009.5
20260509020042 12 280 1.6 1.6 0.00 0.97 0.97 99 1009.2
20260509015541 12 280 0.0 0.0 0.00 0.97 0.97 99 1009.3
20260509015038 12 274 1.6 1.6 0.00 0.97 0.97 99 1009.3
20260509014534 12 275 0.0 1.6 0.00 0.97 0.97 99 1009.4
20260509014030 12 277 0.0 0.0 0.00 0.97 0.97 99 1009.4
20260509013528 12 271 0.0 0.0 0.00 0.97 0.97 99 1009.5
20260509013023 12 259 0.0 1.6 0.00 0.97 0.97 99 1009.4
20260509012520 12 252 6.4 8.0 0.00 0.97 0.97 99 1009.2
20260509012017 12 252 3.2 4.8 0.00 0.97 0.97 99 1009.5
20260509011515 12 266 1.6 3.2 0.00 0.97 0.97 99 1009.3
20260509011012 12 243 6.4 8.0 0.00 0.97 0.97 99 1009.4
20260509010510 12 234 3.2 4.8 0.00 0.97 0.97 99 1009.4
20260509010006 12 252 4.8 4.8 0.00 0.97 0.97 99 1009.3
20260509005504 12 273 1.6 1.6 0.00 0.97 0.97 99 1009.5
20260509005004 12 268 3.2 4.8 0.00 0.97 0.97 99 1009.1
20260509004501 12 231 1.6 1.6 0.00 0.97 0.97 99 1009.2
20260509003958 12 276 0.0 0.0 0.00 0.97 0.97 99 1009.5
20260509003457 12 274 1.6 1.6 0.00 0.97 0.97 99 1009.3
20260509002953 12 280 4.8 4.8 0.00 0.97 0.97 99 1009.3
20260509002451 12 269 6.4 9.7 0.00 0.97 0.97 99 1009.6
20260509001948 12 270 1.6 3.2 0.00 0.97 0.97 99 1009.4
20260509001444 12 260 0.0 1.6 0.00 0.97 0.97 99 1009.2
20260509000941 12 273 0.0 0.0 0.00 0.97 0.97 99 1009.4
20260509000440 12 264 4.8 4.8 0.00 0.97 0.97 99 1009.3
20260508235935 12 251 4.8 4.8 0.00 0.97 0.97 99 1009.3
20260508235433 12 281 3.2 3.2 0.00 0.97 0.97 99 1009.2
20260508234929 12 251 8.0 11.3 0.00 0.97 0.97 99 1009.5
20260508234426 12 242 6.4 9.7 0.00 0.97 0.97 99 1009.5
20260508233924 12 267 0.0 1.6 0.00 0.97 0.97 99 1009.6
20260508233423 12 273 1.6 3.2 0.00 0.97 0.97 99 1009.6
20260508232919 12 268 0.0 0.0 0.00 0.97 0.97 99 1009.4
20260508232416 12 253 1.6 1.6 0.00 0.97 0.97 99 1009.5
20260508231914 12 245 4.8 4.8 0.00 0.97 0.97 99 1009.7
20260508231411 12 257 3.2 3.2 0.00 0.97 0.97 99 1009.3
20260508230908 12 257 3.2 4.8 0.00 0.97 0.97 99 1009.6
20260508230404 12 214 6.4 8.0 0.00 0.97 0.97 99 1009.5
20260508225856 12 277 3.2 3.2 0.00 0.97 0.97 99 1009.4
20260508225352 12 251 6.4 9.7 0.00 0.97 0.97 99 1009.7
20260508224850 12 238 4.8 4.8 0.00 0.97 0.97 99 1009.6
20260508224347 12 287 0.0 0.0 0.00 0.97 0.97 99 1009.7
20260508223845 12 284 1.6 1.6 0.00 0.97 0.97 99 1009.4
20260508223342 12 282 0.0 0.0 0.00 0.97 0.97 99 1009.4
20260508222840 12 264 4.8 4.8 0.00 0.97 0.97 99 1009.8
20260508222337 12 274 0.0 0.0 0.00 0.97 0.97 99 1010.0
20260508221833 12 274 0.0 0.0 0.00 0.97 0.97 99 1009.7
20260508221328 12 281 0.0 0.0 0.13 0.97 0.97 99 1009.6
20260508220825 12 282 0.0 0.0 0.13 0.97 0.97 99 1009.7
20260508220322 12 257 1.6 3.2 0.00 0.94 0.94 99 1009.5
20260508215819 12 284 0.0 0.0 0.00 0.94 0.94 99 1009.8
20260508215315 12 280 0.0 0.0 0.00 0.94 0.94 99 1009.7
20260508214812 12 280 3.2 3.2 0.00 0.94 0.94 99 1009.7
20260508214309 12 279 3.2 3.2 0.18 0.94 0.94 99 1009.8
20260508213806 12 285 0.0 0.0 0.18 0.94 0.94 99 1010.0
20260508213303 12 261 1.6 1.6 0.13 0.91 0.91 99 1010.1
20260508212759 12 267 0.0 1.6 0.13 0.91 0.91 99 1009.7
20260508212255 13 246 1.6 3.2 0.00 0.89 0.89 99 1010.1
20260508211751 13 286 1.6 3.2 0.00 0.89 0.89 99 1010.2
20260508211247 13 255 1.6 3.2 0.00 0.89 0.89 99 1010.1
20260508210745 13 260 1.6 3.2 0.00 0.89 0.89 99 1010.2
20260508210241 13 271 1.6 1.6 0.18 0.89 0.89 99 1010.2
20260508205738 13 257 1.6 1.6 0.30 0.89 0.89 99 1010.2
20260508205234 13 290 3.2 3.2 0.30 0.86 0.86 99 1010.3
20260508204731 13 280 1.6 1.6 0.36 0.84 0.84 99 1010.4
20260508204227 13 282 0.0 0.0 0.30 0.81 0.81 99 1010.5
20260508203723 13 281 0.0 0.0 0.30 0.79 0.79 99 1010.7
20260508203220 13 275 0.0 0.0 0.30 0.76 0.76 99 1010.7
20260508202716 13 282 0.0 0.0 0.30 0.76 0.76 99 1010.8
20260508202213 13 283 1.6 3.2 0.18 0.71 0.71 99 1010.5
20260508201710 13 283 0.0 0.0 0.48 0.71 0.71 99 1010.9
20260508201207 13 262 3.2 3.2 0.18 0.66 0.66 99 1010.9
20260508200704 13 290 3.2 3.2 0.13 0.64 0.64 99 1010.9
20260508200200 13 290 0.0 0.0 0.30 0.61 0.61 99 1010.8
20260508195656 12 293 3.2 3.2 0.30 0.58 0.58 99 1011.0
20260508195153 12 283 0.0 0.0 0.18 0.56 0.56 99 1011.2
20260508194649 12 280 3.2 3.2 0.79 0.53 0.53 99 1011.2
20260508194146 12 281 0.0 1.6 1.19 0.53 0.53 99 1011.0
20260508193643 13 292 1.6 1.6 0.48 0.38 0.38 99 1011.4
20260508193140 13 278 4.8 4.8 0.18 0.33 0.33 99 1011.3
20260508192637 13 279 1.6 1.6 0.43 0.30 0.30 98 1011.2
20260508192134 13 317 3.2 3.2 0.79 0.30 0.30 98 1011.2
20260508191631 13 284 3.2 3.2 0.48 0.23 0.23 97 1011.5
20260508191127 13 279 1.6 3.2 0.30 0.18 0.18 96 1011.4
20260508190625 13 280 1.6 1.6 0.18 0.15 0.15 94 1011.2
20260508190121 13 278 1.6 1.6 0.13 0.13 0.13 94 1011.5
20260508185618 13 291 3.2 3.2 0.18 0.10 0.10 92 1011.1
20260508185115 14 261 6.4 8.0 0.48 0.10 0.10 91 1011.3
20260508184613 16 293 11.3 17.7 0.30 0.08 0.08 84 1011.4
20260508184110 16 257 9.7 11.3 0.00 0.03 0.03 74 1011.0
20260508183606 16 283 4.8 8.0 0.00 0.03 0.03 75 1011.2
20260508183102 16 278 1.6 3.2 0.00 0.03 0.03 74 1011.0
20260508182559 17 282 6.4 9.7 0.00 0.03 0.03 73 1011.1
20260508182055 17 286 3.2 3.2 0.00 0.03 0.03 71 1011.1
20260508181555 17 274 6.4 9.7 0.00 0.03 0.03 70 1011.0
20260508181054 17 254 4.8 8.0 0.00 0.03 0.03 72 1011.2
20260508180550 17 280 3.2 3.2 0.00 0.03 0.03 71 1011.2
20260508180046 17 248 3.2 3.2 0.00 0.03 0.03 70 1011.4
20260508175543 16 279 3.2 4.8 0.00 0.03 0.03 71 1011.4
20260508175041 17 208 3.2 4.8 0.00 0.03 0.03 72 1011.3
20260508174538 16 282 1.6 1.6 0.00 0.03 0.03 73 1011.5
20260508174035 16 272 4.8 8.0 0.00 0.03 0.03 73 1011.5
20260508173532 16 297 4.8 4.8 0.00 0.03 0.03 74 1011.5
20260508173027 16 261 1.6 3.2 0.00 0.03 0.03 73 1011.8
20260508172525 16 273 1.6 1.6 0.00 0.03 0.03 73 1011.7
20260508172021 16 278 3.2 4.8 0.00 0.03 0.03 72 1011.9
20260508171518 16 286 1.6 3.2 0.00 0.03 0.03 73 1012.1
20260508171014 16 280 8.0 12.9 0.00 0.03 0.03 71 1012.0
20260508170512 16 238 4.8 8.0 0.00 0.03 0.03 72 1012.2
20260508170009 16 277 1.6 1.6 0.00 0.03 0.03 72 1012.2
20260508165507 16 239 1.6 3.2 0.00 0.03 0.03 72 1012.3
20260508165004 16 224 14.5 20.9 0.00 0.03 0.03 71 1012.4
20260508164459 15 277 3.2 4.8 0.00 0.03 0.03 72 1012.5
20260508163956 15 272 0.0 1.6 0.00 0.03 0.03 72 1012.6
20260508163454 15 215 8.0 9.7 0.00 0.03 0.03 71 1012.8
20260508162949 15 275 3.2 3.2 0.00 0.03 0.03 73 1013.0
20260508162447 15 281 4.8 4.8 0.00 0.03 0.03 74 1013.0
20260508161944 15 238 8.0 9.7 0.00 0.03 0.03 71 1013.1
20260508161441 15 211 8.0 11.3 0.00 0.03 0.03 71 1013.0
20260508160938 15 252 9.7 11.3 0.00 0.03 0.03 70 1013.0
20260508160438 16 201 4.8 8.0 0.00 0.03 0.03 70 1013.0
20260508155933 16 207 9.7 11.3 0.00 0.03 0.03 71 1012.7
20260508155430 16 250 9.7 14.5 0.00 0.03 0.03 70 1013.0
20260508154927 15 244 4.8 4.8 0.00 0.03 0.03 72 1013.1
20260508154425 16 271 6.4 8.0 0.00 0.03 0.03 72 1013.2
20260508153921 16 241 3.2 3.2 0.00 0.03 0.03 71 1013.2
20260508153418 16 267 3.2 4.8 0.00 0.03 0.03 73 1013.2
20260508152914 15 231 4.8 8.0 0.00 0.03 0.03 75 1013.0
20260508152411 15 313 6.4 9.7 0.00 0.03 0.03 73 1013.2
20260508151908 15 280 6.4 9.7 0.00 0.03 0.03 75 1013.3
20260508151404 14 289 3.2 4.8 0.00 0.03 0.03 75 1013.4
20260508150901 14 219 4.8 8.0 0.00 0.03 0.03 76 1013.6
20260508150357 14 247 3.2 4.8 0.00 0.03 0.03 78 1013.4
20260508145853 14 235 4.8 4.8 0.00 0.03 0.03 75 1013.4
20260508145350 13 283 3.2 3.2 0.00 0.03 0.03 78 1013.5
20260508144847 13 286 3.2 3.2 0.00 0.03 0.03 78 1013.6
20260508144345 13 302 3.2 3.2 0.00 0.03 0.03 78 1013.7
20260508143842 13 280 3.2 3.2 0.00 0.03 0.03 80 1013.6
20260508143339 12 262 3.2 3.2 0.00 0.03 0.03 81 1013.6
20260508142836 12 275 0.0 1.6 0.00 0.03 0.03 82 1013.8
20260508142332 12 261 3.2 3.2 0.00 0.03 0.03 84 1013.7
20260508141829 11 249 3.2 3.2 0.00 0.03 0.03 87 1013.9
20260508141326 11 274 1.6 1.6 0.00 0.03 0.03 87 1014.0
20260508140823 11 282 0.0 0.0 0.00 0.03 0.03 88 1014.0
20260508140320 11 281 0.0 0.0 0.13 0.03 0.03 87 1014.0
20260508135816 11 282 0.0 0.0 0.13 0.03 0.03 86 1014.0
20260508135313 11 273 0.0 0.0 0.00 0.00 0.00 85 1014.1
20260508134808 11 281 3.2 3.2 0.00 0.00 0.00 82 1014.3
20260508134305 11 281 0.0 1.6 0.00 0.00 0.00 82 1013.9
20260508133802 11 277 3.2 3.2 0.00 0.00 0.00 81 1013.8
20260508133300 12 269 1.6 1.6 0.00 0.00 0.00 82 1013.7
20260508132757 12 261 0.0 1.6 0.00 0.00 0.00 83 1013.7
20260508132254 11 263 4.8 4.8 0.00 0.00 0.00 83 1013.5
20260508131750 11 281 0.0 1.6 0.00 0.00 0.00 84 1013.5
20260508131247 11 217 4.8 8.0 0.00 0.00 0.00 85 1013.4
20260508130743 11 243 3.2 3.2 0.00 0.00 0.00 86 1013.7
20260508130241 10 212 4.8 4.8 0.00 0.00 0.00 87 1013.8
20260508125736 10 273 1.6 3.2 0.00 0.00 0.00 87 1013.8
20260508125232 10 283 0.0 0.0 0.00 0.00 0.00 89 1013.8
20260508124731 10 261 1.6 1.6 0.00 0.00 0.00 89 1013.6
20260508124228 10 283 0.0 1.6 0.00 0.00 0.00 90 1013.9
20260508123726 10 280 0.0 0.0 0.00 0.00 0.00 90 1013.9
20260508123224 10 259 1.6 1.6 0.00 0.00 0.00 91 1013.7
20260508122719 10 279 1.6 1.6 0.00 0.00 0.00 91 1013.8
20260508122217 10 274 1.6 1.6 0.00 0.00 0.00 91 1013.9
20260508121714 10 256 1.6 3.2 0.00 0.00 0.00 91 1014.0
20260508121213 10 281 0.0 0.0 0.00 0.00 0.00 91 1013.8
20260508120709 10 280 1.6 1.6 0.00 0.00 0.00 90 1013.9
20260508120208 10 283 0.0 0.0 0.00 0.00 0.00 90 1013.7
20260508115705 10 246 4.8 8.0 0.00 0.00 0.00 90 1013.5
20260508115202 10 272 1.6 1.6 0.00 0.00 0.00 90 1013.7
20260508114659 10 273 1.6 1.6 0.00 0.00 0.00 90 1013.4
20260508114155 10 273 3.2 4.8 0.00 0.00 0.00 89 1013.5
20260508113652 10 252 6.4 9.7 0.00 0.00 0.00 88 1013.5
20260508113151 10 266 4.8 9.7 0.00 0.00 0.00 88 1013.6
20260508112646 10 278 1.6 1.6 0.00 0.00 0.00 88 1013.5
20260508112143 10 283 0.0 1.6 0.00 0.00 0.00 87 1013.4
20260508111640 10 278 1.6 1.6 0.00 0.00 0.00 85 1013.3
20260508111137 10 236 1.6 3.2 0.00 0.00 0.00 85 1013.1
20260508110630 10 298 6.4 8.0 0.00 0.00 0.00 83 1013.2
20260508110125 11 251 11.3 16.1 0.00 0.00 0.00 80 1013.3
20260508105620 11 215 3.2 8.0 0.00 0.00 0.00 78 1013.2
20260508105117 11 292 3.2 3.2 0.00 0.00 0.00 78 1013.2
20260508104615 11 256 3.2 4.8 0.00 0.00 0.00 78 1013.4
20260508104111 11 225 1.6 4.8 0.00 0.00 0.00 78 1013.3
20260508103609 10 287 3.2 3.2 0.00 0.00 0.00 78 1013.1
20260508103106 11 267 3.2 3.2 0.00 0.00 0.00 80 1013.4
20260508102603 11 284 0.0 1.6 0.00 0.00 0.00 79 1013.1
20260508102101 11 289 4.8 4.8 0.00 0.00 0.00 80 1013.1
20260508101558 10 273 4.8 4.8 0.00 0.00 0.00 79 1013.0
20260508101055 10 279 1.6 1.6 0.00 0.00 0.00 80 1013.0
20260508100553 11 275 1.6 1.6 0.00 0.00 0.00 79 1013.0
20260508100050 11 210 4.8 9.7 0.00 0.00 0.00 79 1013.2
20260508095547 11 259 8.0 11.3 0.00 0.00 0.00 79 1013.3
20260508095044 11 296 6.4 14.5 0.00 0.00 0.00 79 1013.2
20260508094541 11 265 11.3 12.9 0.00 0.00 0.00 78 1013.1
20260508094038 11 250 4.8 8.0 0.00 0.00 0.00 78 1013.4
20260508093535 11 240 8.0 12.9 0.00 0.00 0.00 78 1013.3
20260508093033 11 277 3.2 4.8 0.00 0.00 0.00 79 1013.5
20260508092530 10 280 3.2 4.8 0.00 0.00 0.00 79 1013.6
20260508092029 10 273 4.8 4.8 0.00 0.00 0.00 81 1013.3
20260508091525 10 280 0.0 1.6 0.00 0.00 0.00 82 1013.4
20260508091022 10 265 3.2 3.2 0.00 0.00 0.00 84 1013.5
20260508090520 10 279 1.6 3.2 0.00 0.00 0.00 84 1013.3
20260508090016 10 256 1.6 3.2 0.00 0.00 0.00 85 1013.3
20260508085513 9 276 0.0 0.0 0.00 0.00 0.00 86 1013.2
20260508085010 9 274 0.0 1.6 0.00 0.00 0.00 86 1013.3
20260508084507 9 271 1.6 4.8 0.00 0.00 0.00 86 1013.3
20260508084004 9 279 1.6 1.6 0.00 0.00 0.00 85 1013.2
20260508083501 9 230 1.6 3.2 0.00 0.00 0.00 85 1013.4
20260508082956 9 253 4.8 8.0 0.00 0.00 0.00 84 1013.1
20260508082453 9 272 0.0 1.6 0.00 0.00 0.00 83 1013.0
20260508081952 9 279 0.0 0.0 0.00 0.00 0.00 83 1013.2
20260508081448 9 274 0.0 0.0 0.00 0.00 0.00 83 1013.3
20260508080944 10 239 1.6 3.2 0.00 0.00 0.00 82 1013.2
20260508080443 10 285 4.8 4.8 0.00 0.00 0.00 81 1013.3
20260508075939 10 280 0.0 0.0 0.00 0.00 0.00 81 1013.4
20260508075436 10 287 3.2 4.8 0.00 0.00 0.00 81 1013.4
20260508074934 10 314 3.2 3.2 0.00 0.00 0.00 81 1013.4
20260508074431 10 274 4.8 8.0 0.00 0.00 0.00 81 1013.5
20260508073927 10 253 3.2 4.8 0.00 0.00 0.00 81 1013.6
20260508073425 10 266 6.4 8.0 0.00 0.00 0.00 81 1013.4
20260508072922 10 224 8.0 11.3 0.00 0.00 0.00 82 1013.3
20260508072418 10 292 3.2 3.2 0.00 0.00 0.00 82 1013.4
20260508071916 9 256 3.2 3.2 0.00 0.00 0.00 82 1013.1
20260508071414 9 212 6.4 9.7 0.00 0.00 0.00 83 1013.3
20260508070911 9 267 1.6 1.6 0.00 0.00 0.00 82 1013.4
20260508070408 9 274 6.4 9.7 0.00 0.00 0.00 83 1013.4
20260508065906 9 268 3.2 3.2 0.00 0.00 0.00 83 1013.3
20260508065405 8 213 4.8 8.0 0.00 0.00 0.00 84 1013.4
20260508064902 8 255 1.6 4.8 0.00 0.00 0.00 85 1013.4
20260508064359 8 258 1.6 1.6 0.00 0.00 0.00 86 1013.6
20260508063857 8 288 0.0 0.0 0.00 0.00 0.00 86 1013.7
20260508063355 8 238 1.6 4.8 0.00 0.00 0.00 88 1013.6
20260508062852 8 248 3.2 3.2 0.00 0.00 0.00 89 1013.5
20260508062349 8 217 4.8 4.8 0.00 0.00 0.00 89 1013.6
20260508061846 8 269 1.6 1.6 0.00 0.00 0.00 89 1013.6
20260508061344 8 270 1.6 1.6 0.00 0.00 0.00 89 1013.6
20260508060839 8 264 1.6 1.6 0.00 0.00 0.00 89 1013.6
20260508060337 8 268 1.6 1.6 0.00 0.00 0.00 90 1013.6
20260508055832 8 271 1.6 1.6 0.00 0.00 0.00 90 1013.9
20260508055330 8 270 1.6 1.6 0.00 0.00 0.00 90 1013.7
20260508054826 8 273 0.0 1.6 0.00 0.00 0.00 90 1013.7
20260508054324 7 273 0.0 0.0 0.00 0.00 0.00 91 1014.0
20260508053821 7 277 0.0 0.0 0.00 0.00 0.00 91 1013.8
20260508053319 7 278 0.0 0.0 0.00 0.00 0.00 91 1013.8
20260508052816 7 278 0.0 0.0 0.00 0.00 0.00 90 1013.8
20260508052313 8 275 0.0 0.0 0.00 0.00 0.00 90 1014.0
20260508051809 8 269 1.6 1.6 0.00 0.00 0.00 90 1013.8
20260508051304 8 271 1.6 1.6 0.00 0.00 0.00 90 1014.0
20260508050801 8 277 0.0 0.0 0.00 0.00 0.00 90 1013.9
20260508050258 8 269 1.6 3.2 0.00 0.00 0.00 91 1013.6
20260508045754 8 270 0.0 0.0 0.00 0.00 0.00 91 1013.8
20260508045252 7 272 0.0 1.6 0.00 0.00 0.00 92 1013.9